timestamp,waterbody_station,lease,latitude,longitude,deployment_start_date,deployment_end_date,sensor,depth,mooring,Dissolved Oxygen_percent saturation,Temperature_degrees Celsius,Salinity_practical salinity units
2022-05-02T00:00:00,Annapolis Basin-Lobster Ledge,,44.678248,-65.683392,2021-06-16,2022-06-20,VR2AR-547094,6.0,fixed,,6.3,
2022-05-02T00:07:00,Annapolis Basin-Lobster Ledge,,44.678248,-65.683392,2021-06-16,2022-06-20,aquaMeasure-670356,4.0,fixed,,6.6,
2022-05-02T00:07:00,Annapolis Basin-1042,1042.0,44.652855,-65.674531,2021-08-27,2022-05-23,aquaMeasure-671014,0.5,float,110.3,6.64,
2022-05-02T00:17:00,Annapolis Basin-Lobster Ledge,,44.678248,-65.683392,2021-06-16,2022-06-20,aquaMeasure-670356,4.0,fixed,,6.58,
2022-05-02T00:27:00,Annapolis Basin-Lobster Ledge,,44.678248,-65.683392,2021-06-16,2022-06-20,aquaMeasure-670356,4.0,fixed,,6.58,
2022-05-02T00:37:00,Annapolis Basin-Lobster Ledge,,44.678248,-65.683392,2021-06-16,2022-06-20,aquaMeasure-670356,4.0,fixed,,6.58,
2022-05-02T00:47:00,Annapolis Basin-Lobster Ledge,,44.678248,-65.683392,2021-06-16,2022-06-20,aquaMeasure-670356,4.0,fixed,,6.58,
2022-05-02T00:57:00,Annapolis Basin-Lobster Ledge,,44.678248,-65.683392,2021-06-16,2022-06-20,aquaMeasure-670356,4.0,fixed,,6.6,
2022-05-02T01:00:00,Annapolis Basin-Lobster Ledge,,44.678248,-65.683392,2021-06-16,2022-06-20,VR2AR-547094,6.0,fixed,,6.2,
2022-05-02T01:07:00,Annapolis Basin-1042,1042.0,44.652855,-65.674531,2021-08-27,2022-05-23,aquaMeasure-671014,0.5,float,110.7,6.64,
2022-05-02T01:07:00,Annapolis Basin-Lobster Ledge,,44.678248,-65.683392,2021-06-16,2022-06-20,aquaMeasure-670356,4.0,fixed,,6.6,
2022-05-02T01:17:00,Annapolis Basin-Lobster Ledge,,44.678248,-65.683392,2021-06-16,2022-06-20,aquaMeasure-670356,4.0,fixed,,6.6,
2022-05-02T01:27:00,Annapolis Basin-Lobster Ledge,,44.678248,-65.683392,2021-06-16,2022-06-20,aquaMeasure-670356,4.0,fixed,,6.6,
2022-05-02T01:37:00,Annapolis Basin-Lobster Ledge,,44.678248,-65.683392,2021-06-16,2022-06-20,aquaMeasure-670356,4.0,fixed,,6.62,
2022-05-02T01:47:00,Annapolis Basin-Lobster Ledge,,44.678248,-65.683392,2021-06-16,2022-06-20,aquaMeasure-670356,4.0,fixed,,6.56,
2022-05-02T01:57:00,Annapolis Basin-Lobster Ledge,,44.678248,-65.683392,2021-06-16,2022-06-20,aquaMeasure-670356,4.0,fixed,,6.56,
2022-05-02T02:00:00,Annapolis Basin-Lobster Ledge,,44.678248,-65.683392,2021-06-16,2022-06-20,VR2AR-547094,6.0,fixed,,6.2,
2022-05-02T02:07:00,Annapolis Basin-Lobster Ledge,,44.678248,-65.683392,2021-06-16,2022-06-20,aquaMeasure-670356,4.0,fixed,,6.56,
2022-05-02T02:07:00,Annapolis Basin-1042,1042.0,44.652855,-65.674531,2021-08-27,2022-05-23,aquaMeasure-671014,0.5,float,112.2,6.74,
2022-05-02T02:17:00,Annapolis Basin-Lobster Ledge,,44.678248,-65.683392,2021-06-16,2022-06-20,aquaMeasure-670356,4.0,fixed,,6.58,
2022-05-02T02:27:00,Annapolis Basin-Lobster Ledge,,44.678248,-65.683392,2021-06-16,2022-06-20,aquaMeasure-670356,4.0,fixed,,6.58,
2022-05-02T02:37:00,Annapolis Basin-Lobster Ledge,,44.678248,-65.683392,2021-06-16,2022-06-20,aquaMeasure-670356,4.0,fixed,,6.58,
2022-05-02T02:47:00,Annapolis Basin-Lobster Ledge,,44.678248,-65.683392,2021-06-16,2022-06-20,aquaMeasure-670356,4.0,fixed,,6.58,
2022-05-02T02:57:00,Annapolis Basin-Lobster Ledge,,44.678248,-65.683392,2021-06-16,2022-06-20,aquaMeasure-670356,4.0,fixed,,6.6,
2022-05-02T03:00:00,Annapolis Basin-Lobster Ledge,,44.678248,-65.683392,2021-06-16,2022-06-20,VR2AR-547094,6.0,fixed,,6.3,
2022-05-02T03:07:00,Annapolis Basin-Lobster Ledge,,44.678248,-65.683392,2021-06-16,2022-06-20,aquaMeasure-670356,4.0,fixed,,6.6,
2022-05-02T03:07:00,Annapolis Basin-1042,1042.0,44.652855,-65.674531,2021-08-27,2022-05-23,aquaMeasure-671014,0.5,float,114.7,6.7,
2022-05-02T03:17:00,Annapolis Basin-Lobster Ledge,,44.678248,-65.683392,2021-06-16,2022-06-20,aquaMeasure-670356,4.0,fixed,,6.58,
2022-05-02T03:27:00,Annapolis Basin-Lobster Ledge,,44.678248,-65.683392,2021-06-16,2022-06-20,aquaMeasure-670356,4.0,fixed,,6.58,
2022-05-02T03:37:00,Annapolis Basin-Lobster Ledge,,44.678248,-65.683392,2021-06-16,2022-06-20,aquaMeasure-670356,4.0,fixed,,6.58,
2022-05-02T03:47:00,Annapolis Basin-Lobster Ledge,,44.678248,-65.683392,2021-06-16,2022-06-20,aquaMeasure-670356,4.0,fixed,,6.58,
2022-05-02T03:57:00,Annapolis Basin-Lobster Ledge,,44.678248,-65.683392,2021-06-16,2022-06-20,aquaMeasure-670356,4.0,fixed,,6.58,
2022-05-02T04:00:00,Annapolis Basin-Lobster Ledge,,44.678248,-65.683392,2021-06-16,2022-06-20,VR2AR-547094,6.0,fixed,,6.2,
2022-05-02T04:07:00,Annapolis Basin-Lobster Ledge,,44.678248,-65.683392,2021-06-16,2022-06-20,aquaMeasure-670356,4.0,fixed,,6.58,
2022-05-02T04:07:00,Annapolis Basin-1042,1042.0,44.652855,-65.674531,2021-08-27,2022-05-23,aquaMeasure-671014,0.5,float,114.1,6.68,
2022-05-02T04:17:00,Annapolis Basin-Lobster Ledge,,44.678248,-65.683392,2021-06-16,2022-06-20,aquaMeasure-670356,4.0,fixed,,6.58,
2022-05-02T04:27:00,Annapolis Basin-Lobster Ledge,,44.678248,-65.683392,2021-06-16,2022-06-20,aquaMeasure-670356,4.0,fixed,,6.6,
2022-05-02T04:37:00,Annapolis Basin-Lobster Ledge,,44.678248,-65.683392,2021-06-16,2022-06-20,aquaMeasure-670356,4.0,fixed,,6.6,
2022-05-02T04:47:00,Annapolis Basin-Lobster Ledge,,44.678248,-65.683392,2021-06-16,2022-06-20,aquaMeasure-670356,4.0,fixed,,6.6,
2022-05-02T04:57:00,Annapolis Basin-Lobster Ledge,,44.678248,-65.683392,2021-06-16,2022-06-20,aquaMeasure-670356,4.0,fixed,,6.6,
2022-05-02T05:00:00,Annapolis Basin-Lobster Ledge,,44.678248,-65.683392,2021-06-16,2022-06-20,VR2AR-547094,6.0,fixed,,6.3,
2022-05-02T05:07:00,Annapolis Basin-1042,1042.0,44.652855,-65.674531,2021-08-27,2022-05-23,aquaMeasure-671014,0.5,float,114.5,6.7,
2022-05-02T05:07:00,Annapolis Basin-Lobster Ledge,,44.678248,-65.683392,2021-06-16,2022-06-20,aquaMeasure-670356,4.0,fixed,,6.6,
2022-05-02T05:17:00,Annapolis Basin-Lobster Ledge,,44.678248,-65.683392,2021-06-16,2022-06-20,aquaMeasure-670356,4.0,fixed,,6.6,
2022-05-02T05:27:00,Annapolis Basin-Lobster Ledge,,44.678248,-65.683392,2021-06-16,2022-06-20,aquaMeasure-670356,4.0,fixed,,6.6,
2022-05-02T05:37:00,Annapolis Basin-Lobster Ledge,,44.678248,-65.683392,2021-06-16,2022-06-20,aquaMeasure-670356,4.0,fixed,,6.6,
2022-05-02T05:47:00,Annapolis Basin-Lobster Ledge,,44.678248,-65.683392,2021-06-16,2022-06-20,aquaMeasure-670356,4.0,fixed,,6.6,
2022-05-02T05:57:00,Annapolis Basin-Lobster Ledge,,44.678248,-65.683392,2021-06-16,2022-06-20,aquaMeasure-670356,4.0,fixed,,6.62,
2022-05-02T06:00:00,Annapolis Basin-Lobster Ledge,,44.678248,-65.683392,2021-06-16,2022-06-20,VR2AR-547094,6.0,fixed,,6.3,
2022-05-02T06:07:00,Annapolis Basin-Lobster Ledge,,44.678248,-65.683392,2021-06-16,2022-06-20,aquaMeasure-670356,4.0,fixed,,6.62,
2022-05-02T06:07:00,Annapolis Basin-1042,1042.0,44.652855,-65.674531,2021-08-27,2022-05-23,aquaMeasure-671014,0.5,float,114.0,6.66,
2022-05-02T06:17:00,Annapolis Basin-Lobster Ledge,,44.678248,-65.683392,2021-06-16,2022-06-20,aquaMeasure-670356,4.0,fixed,,6.6,
2022-05-02T06:27:00,Annapolis Basin-Lobster Ledge,,44.678248,-65.683392,2021-06-16,2022-06-20,aquaMeasure-670356,4.0,fixed,,6.6,
2022-05-02T06:37:00,Annapolis Basin-Lobster Ledge,,44.678248,-65.683392,2021-06-16,2022-06-20,aquaMeasure-670356,4.0,fixed,,6.62,
2022-05-02T06:47:00,Annapolis Basin-Lobster Ledge,,44.678248,-65.683392,2021-06-16,2022-06-20,aquaMeasure-670356,4.0,fixed,,6.64,
2022-05-02T06:57:00,Annapolis Basin-Lobster Ledge,,44.678248,-65.683392,2021-06-16,2022-06-20,aquaMeasure-670356,4.0,fixed,,6.66,
2022-05-02T07:00:00,Annapolis Basin-Lobster Ledge,,44.678248,-65.683392,2021-06-16,2022-06-20,VR2AR-547094,6.0,fixed,,6.3,
2022-05-02T07:07:00,Annapolis Basin-Lobster Ledge,,44.678248,-65.683392,2021-06-16,2022-06-20,aquaMeasure-670356,4.0,fixed,,6.66,
2022-05-02T07:07:00,Annapolis Basin-1042,1042.0,44.652855,-65.674531,2021-08-27,2022-05-23,aquaMeasure-671014,0.5,float,113.6,6.7,
2022-05-02T07:17:00,Annapolis Basin-Lobster Ledge,,44.678248,-65.683392,2021-06-16,2022-06-20,aquaMeasure-670356,4.0,fixed,,6.68,
2022-05-02T07:27:00,Annapolis Basin-Lobster Ledge,,44.678248,-65.683392,2021-06-16,2022-06-20,aquaMeasure-670356,4.0,fixed,,6.7,
2022-05-02T07:37:00,Annapolis Basin-Lobster Ledge,,44.678248,-65.683392,2021-06-16,2022-06-20,aquaMeasure-670356,4.0,fixed,,6.74,
2022-05-02T07:47:00,Annapolis Basin-Lobster Ledge,,44.678248,-65.683392,2021-06-16,2022-06-20,aquaMeasure-670356,4.0,fixed,,6.72,
2022-05-02T07:57:00,Annapolis Basin-Lobster Ledge,,44.678248,-65.683392,2021-06-16,2022-06-20,aquaMeasure-670356,4.0,fixed,,6.74,
2022-05-02T08:00:00,Annapolis Basin-Lobster Ledge,,44.678248,-65.683392,2021-06-16,2022-06-20,VR2AR-547094,6.0,fixed,,6.3,
2022-05-02T08:07:00,Annapolis Basin-1042,1042.0,44.652855,-65.674531,2021-08-27,2022-05-23,aquaMeasure-671014,0.5,float,113.6,6.64,
2022-05-02T08:07:00,Annapolis Basin-Lobster Ledge,,44.678248,-65.683392,2021-06-16,2022-06-20,aquaMeasure-670356,4.0,fixed,,6.76,
2022-05-02T08:17:00,Annapolis Basin-Lobster Ledge,,44.678248,-65.683392,2021-06-16,2022-06-20,aquaMeasure-670356,4.0,fixed,,6.8,
2022-05-02T08:27:00,Annapolis Basin-Lobster Ledge,,44.678248,-65.683392,2021-06-16,2022-06-20,aquaMeasure-670356,4.0,fixed,,6.82,
2022-05-02T08:37:00,Annapolis Basin-Lobster Ledge,,44.678248,-65.683392,2021-06-16,2022-06-20,aquaMeasure-670356,4.0,fixed,,6.86,
2022-05-02T08:47:00,Annapolis Basin-Lobster Ledge,,44.678248,-65.683392,2021-06-16,2022-06-20,aquaMeasure-670356,4.0,fixed,,6.88,
2022-05-02T08:57:00,Annapolis Basin-Lobster Ledge,,44.678248,-65.683392,2021-06-16,2022-06-20,aquaMeasure-670356,4.0,fixed,,6.9,
2022-05-02T09:00:00,Annapolis Basin-Lobster Ledge,,44.678248,-65.683392,2021-06-16,2022-06-20,VR2AR-547094,6.0,fixed,,6.4,
2022-05-02T09:07:00,Annapolis Basin-1042,1042.0,44.652855,-65.674531,2021-08-27,2022-05-23,aquaMeasure-671014,0.5,float,113.6,6.72,
2022-05-02T09:07:00,Annapolis Basin-Lobster Ledge,,44.678248,-65.683392,2021-06-16,2022-06-20,aquaMeasure-670356,4.0,fixed,,6.92,
2022-05-02T09:17:00,Annapolis Basin-Lobster Ledge,,44.678248,-65.683392,2021-06-16,2022-06-20,aquaMeasure-670356,4.0,fixed,,6.92,
2022-05-02T09:27:00,Annapolis Basin-Lobster Ledge,,44.678248,-65.683392,2021-06-16,2022-06-20,aquaMeasure-670356,4.0,fixed,,6.9,
2022-05-02T09:37:00,Annapolis Basin-Lobster Ledge,,44.678248,-65.683392,2021-06-16,2022-06-20,aquaMeasure-670356,4.0,fixed,,6.92,
2022-05-02T09:47:00,Annapolis Basin-Lobster Ledge,,44.678248,-65.683392,2021-06-16,2022-06-20,aquaMeasure-670356,4.0,fixed,,6.98,
2022-05-02T09:57:00,Annapolis Basin-Lobster Ledge,,44.678248,-65.683392,2021-06-16,2022-06-20,aquaMeasure-670356,4.0,fixed,,6.98,
2022-05-02T10:00:00,Annapolis Basin-Lobster Ledge,,44.678248,-65.683392,2021-06-16,2022-06-20,VR2AR-547094,6.0,fixed,,6.4,
2022-05-02T10:07:00,Annapolis Basin-Lobster Ledge,,44.678248,-65.683392,2021-06-16,2022-06-20,aquaMeasure-670356,4.0,fixed,,6.98,
2022-05-02T10:07:00,Annapolis Basin-1042,1042.0,44.652855,-65.674531,2021-08-27,2022-05-23,aquaMeasure-671014,0.5,float,113.7,6.76,
2022-05-02T10:17:00,Annapolis Basin-Lobster Ledge,,44.678248,-65.683392,2021-06-16,2022-06-20,aquaMeasure-670356,4.0,fixed,,6.96,
2022-05-02T10:27:00,Annapolis Basin-Lobster Ledge,,44.678248,-65.683392,2021-06-16,2022-06-20,aquaMeasure-670356,4.0,fixed,,6.96,
2022-05-02T10:37:00,Annapolis Basin-Lobster Ledge,,44.678248,-65.683392,2021-06-16,2022-06-20,aquaMeasure-670356,4.0,fixed,,6.96,
2022-05-02T10:47:00,Annapolis Basin-Lobster Ledge,,44.678248,-65.683392,2021-06-16,2022-06-20,aquaMeasure-670356,4.0,fixed,,6.92,
2022-05-02T10:57:00,Annapolis Basin-Lobster Ledge,,44.678248,-65.683392,2021-06-16,2022-06-20,aquaMeasure-670356,4.0,fixed,,6.92,
2022-05-02T11:00:00,Annapolis Basin-Lobster Ledge,,44.678248,-65.683392,2021-06-16,2022-06-20,VR2AR-547094,6.0,fixed,,6.4,
2022-05-02T11:07:00,Annapolis Basin-Lobster Ledge,,44.678248,-65.683392,2021-06-16,2022-06-20,aquaMeasure-670356,4.0,fixed,,6.88,
2022-05-02T11:07:00,Annapolis Basin-1042,1042.0,44.652855,-65.674531,2021-08-27,2022-05-23,aquaMeasure-671014,0.5,float,114.4,6.74,
2022-05-02T11:17:00,Annapolis Basin-Lobster Ledge,,44.678248,-65.683392,2021-06-16,2022-06-20,aquaMeasure-670356,4.0,fixed,,6.86,
2022-05-02T11:27:00,Annapolis Basin-Lobster Ledge,,44.678248,-65.683392,2021-06-16,2022-06-20,aquaMeasure-670356,4.0,fixed,,6.8,
2022-05-02T11:37:00,Annapolis Basin-Lobster Ledge,,44.678248,-65.683392,2021-06-16,2022-06-20,aquaMeasure-670356,4.0,fixed,,6.8,
2022-05-02T11:47:00,Annapolis Basin-Lobster Ledge,,44.678248,-65.683392,2021-06-16,2022-06-20,aquaMeasure-670356,4.0,fixed,,6.78,
2022-05-02T11:57:00,Annapolis Basin-Lobster Ledge,,44.678248,-65.683392,2021-06-16,2022-06-20,aquaMeasure-670356,4.0,fixed,,6.78,
2022-05-02T12:00:00,Annapolis Basin-Lobster Ledge,,44.678248,-65.683392,2021-06-16,2022-06-20,VR2AR-547094,6.0,fixed,,6.4,
2022-05-02T12:07:00,Annapolis Basin-Lobster Ledge,,44.678248,-65.683392,2021-06-16,2022-06-20,aquaMeasure-670356,4.0,fixed,,6.78,
2022-05-02T12:07:00,Annapolis Basin-1042,1042.0,44.652855,-65.674531,2021-08-27,2022-05-23,aquaMeasure-671014,0.5,float,113.1,6.78,
2022-05-02T12:17:00,Annapolis Basin-Lobster Ledge,,44.678248,-65.683392,2021-06-16,2022-06-20,aquaMeasure-670356,4.0,fixed,,6.76,
2022-05-02T12:27:00,Annapolis Basin-Lobster Ledge,,44.678248,-65.683392,2021-06-16,2022-06-20,aquaMeasure-670356,4.0,fixed,,6.68,
2022-05-02T12:37:00,Annapolis Basin-Lobster Ledge,,44.678248,-65.683392,2021-06-16,2022-06-20,aquaMeasure-670356,4.0,fixed,,6.66,
2022-05-02T12:47:00,Annapolis Basin-Lobster Ledge,,44.678248,-65.683392,2021-06-16,2022-06-20,aquaMeasure-670356,4.0,fixed,,6.62,
2022-05-02T12:57:00,Annapolis Basin-Lobster Ledge,,44.678248,-65.683392,2021-06-16,2022-06-20,aquaMeasure-670356,4.0,fixed,,6.62,
2022-05-02T13:00:00,Annapolis Basin-Lobster Ledge,,44.678248,-65.683392,2021-06-16,2022-06-20,VR2AR-547094,6.0,fixed,,6.3,
2022-05-02T13:07:00,Annapolis Basin-1042,1042.0,44.652855,-65.674531,2021-08-27,2022-05-23,aquaMeasure-671014,0.5,float,114.4,6.66,
2022-05-02T13:07:00,Annapolis Basin-Lobster Ledge,,44.678248,-65.683392,2021-06-16,2022-06-20,aquaMeasure-670356,4.0,fixed,,6.62,
2022-05-02T13:17:00,Annapolis Basin-Lobster Ledge,,44.678248,-65.683392,2021-06-16,2022-06-20,aquaMeasure-670356,4.0,fixed,,6.62,
2022-05-02T13:27:00,Annapolis Basin-Lobster Ledge,,44.678248,-65.683392,2021-06-16,2022-06-20,aquaMeasure-670356,4.0,fixed,,6.64,
2022-05-02T13:37:00,Annapolis Basin-Lobster Ledge,,44.678248,-65.683392,2021-06-16,2022-06-20,aquaMeasure-670356,4.0,fixed,,6.64,
2022-05-02T13:47:00,Annapolis Basin-Lobster Ledge,,44.678248,-65.683392,2021-06-16,2022-06-20,aquaMeasure-670356,4.0,fixed,,6.64,
2022-05-02T13:57:00,Annapolis Basin-Lobster Ledge,,44.678248,-65.683392,2021-06-16,2022-06-20,aquaMeasure-670356,4.0,fixed,,6.6,
2022-05-02T14:00:00,Annapolis Basin-Lobster Ledge,,44.678248,-65.683392,2021-06-16,2022-06-20,VR2AR-547094,6.0,fixed,,6.3,
2022-05-02T14:07:00,Annapolis Basin-Lobster Ledge,,44.678248,-65.683392,2021-06-16,2022-06-20,aquaMeasure-670356,4.0,fixed,,6.56,
2022-05-02T14:07:00,Annapolis Basin-1042,1042.0,44.652855,-65.674531,2021-08-27,2022-05-23,aquaMeasure-671014,0.5,float,112.6,6.66,
2022-05-02T14:17:00,Annapolis Basin-Lobster Ledge,,44.678248,-65.683392,2021-06-16,2022-06-20,aquaMeasure-670356,4.0,fixed,,6.54,
2022-05-02T14:27:00,Annapolis Basin-Lobster Ledge,,44.678248,-65.683392,2021-06-16,2022-06-20,aquaMeasure-670356,4.0,fixed,,6.54,
2022-05-02T14:37:00,Annapolis Basin-Lobster Ledge,,44.678248,-65.683392,2021-06-16,2022-06-20,aquaMeasure-670356,4.0,fixed,,6.54,
2022-05-02T14:47:00,Annapolis Basin-Lobster Ledge,,44.678248,-65.683392,2021-06-16,2022-06-20,aquaMeasure-670356,4.0,fixed,,6.52,
2022-05-02T14:57:00,Annapolis Basin-Lobster Ledge,,44.678248,-65.683392,2021-06-16,2022-06-20,aquaMeasure-670356,4.0,fixed,,6.52,
2022-05-02T15:00:00,Annapolis Basin-Lobster Ledge,,44.678248,-65.683392,2021-06-16,2022-06-20,VR2AR-547094,6.0,fixed,,6.2,
2022-05-02T15:07:00,Annapolis Basin-1042,1042.0,44.652855,-65.674531,2021-08-27,2022-05-23,aquaMeasure-671014,0.5,float,112.3,6.66,
2022-05-02T15:07:00,Annapolis Basin-Lobster Ledge,,44.678248,-65.683392,2021-06-16,2022-06-20,aquaMeasure-670356,4.0,fixed,,6.52,
2022-05-02T15:17:00,Annapolis Basin-Lobster Ledge,,44.678248,-65.683392,2021-06-16,2022-06-20,aquaMeasure-670356,4.0,fixed,,6.52,
2022-05-02T15:27:00,Annapolis Basin-Lobster Ledge,,44.678248,-65.683392,2021-06-16,2022-06-20,aquaMeasure-670356,4.0,fixed,,6.52,
2022-05-02T15:37:00,Annapolis Basin-Lobster Ledge,,44.678248,-65.683392,2021-06-16,2022-06-20,aquaMeasure-670356,4.0,fixed,,6.52,
2022-05-02T15:47:00,Annapolis Basin-Lobster Ledge,,44.678248,-65.683392,2021-06-16,2022-06-20,aquaMeasure-670356,4.0,fixed,,6.52,
2022-05-02T15:57:00,Annapolis Basin-Lobster Ledge,,44.678248,-65.683392,2021-06-16,2022-06-20,aquaMeasure-670356,4.0,fixed,,6.52,
2022-05-02T16:00:00,Annapolis Basin-Lobster Ledge,,44.678248,-65.683392,2021-06-16,2022-06-20,VR2AR-547094,6.0,fixed,,6.2,
2022-05-02T16:07:00,Annapolis Basin-1042,1042.0,44.652855,-65.674531,2021-08-27,2022-05-23,aquaMeasure-671014,0.5,float,117.2,6.72,
2022-05-02T16:07:00,Annapolis Basin-Lobster Ledge,,44.678248,-65.683392,2021-06-16,2022-06-20,aquaMeasure-670356,4.0,fixed,,6.52,
2022-05-02T16:17:00,Annapolis Basin-Lobster Ledge,,44.678248,-65.683392,2021-06-16,2022-06-20,aquaMeasure-670356,4.0,fixed,,6.52,
2022-05-02T16:27:00,Annapolis Basin-Lobster Ledge,,44.678248,-65.683392,2021-06-16,2022-06-20,aquaMeasure-670356,4.0,fixed,,6.52,
2022-05-02T16:37:00,Annapolis Basin-Lobster Ledge,,44.678248,-65.683392,2021-06-16,2022-06-20,aquaMeasure-670356,4.0,fixed,,6.52,
2022-05-02T16:47:00,Annapolis Basin-Lobster Ledge,,44.678248,-65.683392,2021-06-16,2022-06-20,aquaMeasure-670356,4.0,fixed,,6.5,
2022-05-02T16:57:00,Annapolis Basin-Lobster Ledge,,44.678248,-65.683392,2021-06-16,2022-06-20,aquaMeasure-670356,4.0,fixed,,6.52,
2022-05-02T17:00:00,Annapolis Basin-Lobster Ledge,,44.678248,-65.683392,2021-06-16,2022-06-20,VR2AR-547094,6.0,fixed,,6.2,
2022-05-02T17:07:00,Annapolis Basin-1042,1042.0,44.652855,-65.674531,2021-08-27,2022-05-23,aquaMeasure-671014,0.5,float,117.4,6.7,
2022-05-02T17:07:00,Annapolis Basin-Lobster Ledge,,44.678248,-65.683392,2021-06-16,2022-06-20,aquaMeasure-670356,4.0,fixed,,6.54,
2022-05-02T17:17:00,Annapolis Basin-Lobster Ledge,,44.678248,-65.683392,2021-06-16,2022-06-20,aquaMeasure-670356,4.0,fixed,,6.54,
2022-05-02T17:27:00,Annapolis Basin-Lobster Ledge,,44.678248,-65.683392,2021-06-16,2022-06-20,aquaMeasure-670356,4.0,fixed,,6.56,
2022-05-02T17:37:00,Annapolis Basin-Lobster Ledge,,44.678248,-65.683392,2021-06-16,2022-06-20,aquaMeasure-670356,4.0,fixed,,6.54,
2022-05-02T17:47:00,Annapolis Basin-Lobster Ledge,,44.678248,-65.683392,2021-06-16,2022-06-20,aquaMeasure-670356,4.0,fixed,,6.54,
2022-05-02T17:57:00,Annapolis Basin-Lobster Ledge,,44.678248,-65.683392,2021-06-16,2022-06-20,aquaMeasure-670356,4.0,fixed,,6.56,
2022-05-02T18:00:00,Annapolis Basin-Lobster Ledge,,44.678248,-65.683392,2021-06-16,2022-06-20,VR2AR-547094,6.0,fixed,,6.2,
2022-05-02T18:07:00,Annapolis Basin-1042,1042.0,44.652855,-65.674531,2021-08-27,2022-05-23,aquaMeasure-671014,0.5,float,116.3,6.6,
2022-05-02T18:07:00,Annapolis Basin-Lobster Ledge,,44.678248,-65.683392,2021-06-16,2022-06-20,aquaMeasure-670356,4.0,fixed,,6.52,
2022-05-02T18:17:00,Annapolis Basin-Lobster Ledge,,44.678248,-65.683392,2021-06-16,2022-06-20,aquaMeasure-670356,4.0,fixed,,6.54,
2022-05-02T18:27:00,Annapolis Basin-Lobster Ledge,,44.678248,-65.683392,2021-06-16,2022-06-20,aquaMeasure-670356,4.0,fixed,,6.56,
2022-05-02T18:37:00,Annapolis Basin-Lobster Ledge,,44.678248,-65.683392,2021-06-16,2022-06-20,aquaMeasure-670356,4.0,fixed,,6.54,
2022-05-02T18:47:00,Annapolis Basin-Lobster Ledge,,44.678248,-65.683392,2021-06-16,2022-06-20,aquaMeasure-670356,4.0,fixed,,6.56,
2022-05-02T18:57:00,Annapolis Basin-Lobster Ledge,,44.678248,-65.683392,2021-06-16,2022-06-20,aquaMeasure-670356,4.0,fixed,,6.56,
2022-05-02T19:00:00,Annapolis Basin-Lobster Ledge,,44.678248,-65.683392,2021-06-16,2022-06-20,VR2AR-547094,6.0,fixed,,6.2,
2022-05-02T19:07:00,Annapolis Basin-Lobster Ledge,,44.678248,-65.683392,2021-06-16,2022-06-20,aquaMeasure-670356,4.0,fixed,,6.56,
2022-05-02T19:07:00,Annapolis Basin-1042,1042.0,44.652855,-65.674531,2021-08-27,2022-05-23,aquaMeasure-671014,0.5,float,114.7,6.62,
2022-05-02T19:17:00,Annapolis Basin-Lobster Ledge,,44.678248,-65.683392,2021-06-16,2022-06-20,aquaMeasure-670356,4.0,fixed,,6.58,
2022-05-02T19:27:00,Annapolis Basin-Lobster Ledge,,44.678248,-65.683392,2021-06-16,2022-06-20,aquaMeasure-670356,4.0,fixed,,6.58,
2022-05-02T19:37:00,Annapolis Basin-Lobster Ledge,,44.678248,-65.683392,2021-06-16,2022-06-20,aquaMeasure-670356,4.0,fixed,,6.66,
2022-05-02T19:47:00,Annapolis Basin-Lobster Ledge,,44.678248,-65.683392,2021-06-16,2022-06-20,aquaMeasure-670356,4.0,fixed,,6.72,
2022-05-02T19:57:00,Annapolis Basin-Lobster Ledge,,44.678248,-65.683392,2021-06-16,2022-06-20,aquaMeasure-670356,4.0,fixed,,6.76,
2022-05-02T20:00:00,Annapolis Basin-Lobster Ledge,,44.678248,-65.683392,2021-06-16,2022-06-20,VR2AR-547094,6.0,fixed,,6.2,
2022-05-02T20:07:00,Annapolis Basin-1042,1042.0,44.652855,-65.674531,2021-08-27,2022-05-23,aquaMeasure-671014,0.5,float,114.5,6.72,
2022-05-02T20:07:00,Annapolis Basin-Lobster Ledge,,44.678248,-65.683392,2021-06-16,2022-06-20,aquaMeasure-670356,4.0,fixed,,6.74,
2022-05-02T20:17:00,Annapolis Basin-Lobster Ledge,,44.678248,-65.683392,2021-06-16,2022-06-20,aquaMeasure-670356,4.0,fixed,,6.8,
2022-05-02T20:27:00,Annapolis Basin-Lobster Ledge,,44.678248,-65.683392,2021-06-16,2022-06-20,aquaMeasure-670356,4.0,fixed,,6.8,
2022-05-02T20:37:00,Annapolis Basin-Lobster Ledge,,44.678248,-65.683392,2021-06-16,2022-06-20,aquaMeasure-670356,4.0,fixed,,6.84,
2022-05-02T20:47:00,Annapolis Basin-Lobster Ledge,,44.678248,-65.683392,2021-06-16,2022-06-20,aquaMeasure-670356,4.0,fixed,,6.86,
2022-05-02T20:57:00,Annapolis Basin-Lobster Ledge,,44.678248,-65.683392,2021-06-16,2022-06-20,aquaMeasure-670356,4.0,fixed,,6.88,
2022-05-02T21:00:00,Annapolis Basin-Lobster Ledge,,44.678248,-65.683392,2021-06-16,2022-06-20,VR2AR-547094,6.0,fixed,,6.3,
2022-05-02T21:07:00,Annapolis Basin-1042,1042.0,44.652855,-65.674531,2021-08-27,2022-05-23,aquaMeasure-671014,0.5,float,114.5,6.8,
2022-05-02T21:07:00,Annapolis Basin-Lobster Ledge,,44.678248,-65.683392,2021-06-16,2022-06-20,aquaMeasure-670356,4.0,fixed,,6.92,
2022-05-02T21:17:00,Annapolis Basin-Lobster Ledge,,44.678248,-65.683392,2021-06-16,2022-06-20,aquaMeasure-670356,4.0,fixed,,7.0,
2022-05-02T21:27:00,Annapolis Basin-Lobster Ledge,,44.678248,-65.683392,2021-06-16,2022-06-20,aquaMeasure-670356,4.0,fixed,,7.02,
2022-05-02T21:37:00,Annapolis Basin-Lobster Ledge,,44.678248,-65.683392,2021-06-16,2022-06-20,aquaMeasure-670356,4.0,fixed,,7.08,
2022-05-02T21:47:00,Annapolis Basin-Lobster Ledge,,44.678248,-65.683392,2021-06-16,2022-06-20,aquaMeasure-670356,4.0,fixed,,7.1,
2022-05-02T21:57:00,Annapolis Basin-Lobster Ledge,,44.678248,-65.683392,2021-06-16,2022-06-20,aquaMeasure-670356,4.0,fixed,,7.12,
2022-05-02T22:00:00,Annapolis Basin-Lobster Ledge,,44.678248,-65.683392,2021-06-16,2022-06-20,VR2AR-547094,6.0,fixed,,6.4,
2022-05-02T22:07:00,Annapolis Basin-Lobster Ledge,,44.678248,-65.683392,2021-06-16,2022-06-20,aquaMeasure-670356,4.0,fixed,,7.14,
2022-05-02T22:07:00,Annapolis Basin-1042,1042.0,44.652855,-65.674531,2021-08-27,2022-05-23,aquaMeasure-671014,0.5,float,116.4,6.88,
2022-05-02T22:17:00,Annapolis Basin-Lobster Ledge,,44.678248,-65.683392,2021-06-16,2022-06-20,aquaMeasure-670356,4.0,fixed,,7.12,
2022-05-02T22:27:00,Annapolis Basin-Lobster Ledge,,44.678248,-65.683392,2021-06-16,2022-06-20,aquaMeasure-670356,4.0,fixed,,7.14,
2022-05-02T22:37:00,Annapolis Basin-Lobster Ledge,,44.678248,-65.683392,2021-06-16,2022-06-20,aquaMeasure-670356,4.0,fixed,,7.12,
2022-05-02T22:47:00,Annapolis Basin-Lobster Ledge,,44.678248,-65.683392,2021-06-16,2022-06-20,aquaMeasure-670356,4.0,fixed,,6.96,
2022-05-02T22:57:00,Annapolis Basin-Lobster Ledge,,44.678248,-65.683392,2021-06-16,2022-06-20,aquaMeasure-670356,4.0,fixed,,7.08,